Regional Weather Roundup
Issued by NWS

Home | Current Version | Previous Version | Graphics & Text | Print | Product List | Glossary On
Versions: 1 2 3 4 5 6 7 8 9 10 11 12 13 14 15 16 17 18 19 20 21 22 23 24 25 26 27 28 29 30 31 32 33 34 35 36 37 38 39 40 41 42 43 44 45 46 47 48 49 50
000
ASUS43 KMKX 260111
RWRWI

WISCONSIN REGIONAL WEATHER ROUNDUP
NATIONAL WEATHER SERVICE MILWAUKEE/SULLIVAN WI
800 PM CDT MON JUL 25 2016

NOTE: "FAIR" INDICATES FEW OR NO CLOUDS BELOW 12,000 FEET WITH NO
SIGNIFICANT WEATHER AND/OR OBSTRUCTIONS TO VISIBILITY.

WIZ001-002-006>008-014>016-023>028-260200-
NORTHWEST WISCONSIN

CITY           SKY/WX    TMP DP  RH WIND       PRES   REMARKS
SUPERIOR ARPT  CLEAR     80  64  59 W3        29.96S HX  81
ASHLAND        CLEAR     79  64  60 S3        29.97S HX  81
HAYWARD        CLEAR     79  62  56 SW5       30.01S HX  80
SIREN          CLEAR     81  63  54 CALM      30.01S HX  82
CUMBERLAND     CLEAR     77  63  61 W3        30.03S
RICE LAKE      CLEAR     78  63  60 CALM      30.03S
CHETEK         CLEAR     79  63  58 MISG      30.02S HX  80
LADYSMITH      CLEAR     77  63  61 W3        30.04S
EAU CLAIRE     CLEAR     80  63  55 NW3       30.01R HX  81
MENOMONIE      CLEAR     82  63  52 W3        30.02S HX  83
NEW RICHMOND   CLEAR     79  63  58 NW3       30.02S HX  81
OSCEOLA        CLEAR     81  63  55 CALM      30.04S HX  82
$$

WIZ003>005-009-010-017-018-260200-
NORTH CENTRAL WISCONSIN

CITY           SKY/WX    TMP DP  RH WIND       PRES   REMARKS
MANITOWISH WTR CLEAR     73  61  65 CALM      30.02S
ARBOR VITAE    CLEAR     77  61  57 NW3       30.02S
WOODRUFF       CLEAR     77  61  57 NW3       30.02S
RHINELANDER    CLEAR     76  59  55 W3        30.03S
EAGLE RIVER    CLEAR     73  55  53 CALM      30.02R
LAND O LAKES   CLEAR     74  56  52 NW3       30.03S
PHILLIPS       CLEAR     76  62  63 CALM      30.02S
TOMAHAWK       CLEAR     74  60  61 W3        30.03R
MEDFORD        CLEAR     74  62  66 W5        30.03R
MERRILL        CLEAR     77  61  57 CALM      30.02S
$$

WIZ029-030-035-036-043>047-260200-
CENTRAL WISCONSIN

CITY           SKY/WX    TMP DP  RH WIND       PRES   REMARKS
WAUSAU         CLEAR     79  58  48 NW6       30.00S HX  80
MOSINEE        CLEAR     73  61  64 NW6       30.03R
MARSHFIELD     CLEAR     77  62  59 W5        30.02S
STEVENS POINT  CLEAR     76  61  57 CALM      30.02R
WAUPACA        CLEAR     82  60  48 W3        30.00R HX  82
WAUTOMA        CLEAR     78  64  61 W3        30.01R HX  80
WISC RAPIDS    CLEAR     78  60  53 NW3       30.02S
CAMP DOUGLAS   PTCLDY    75  68  78 W3        30.01R
$$

WIZ011>013-019>022-031-037>040-048>050-260200-
NORTHEAST WISCONSIN

CITY           SKY/WX    TMP DP  RH WIND       PRES   REMARKS
ANTIGO         CLEAR     73  62  68 CALM      30.02S
SHAWANO        CLEAR     79  62  55 W3        29.99R HX  80
OCONTO         CLEAR     76  67  73 CALM      29.96R
STURGEON BAY   PTCLDY    79  62  56 NW3       29.97R HX  80
GREEN BAY      PTCLDY    75  70  84 W6        29.97S
MANITOWOC      MOCLDY    81  63  54 CALM      29.98R HX  82
APPLETON       PTCLDY    77  59  53 NW5       29.98R
CLINTONVILLE   CLEAR     79  59  50 NW3       29.99R HX  80
OSHKOSH        CLEAR     79  63  57 W3        29.99R HX  80
$$

WIZ032>034-041-042-053>061-260200-
SOUTHWEST WISCONSIN

CITY           SKY/WX    TMP DP  RH WIND       PRES   REMARKS
LA CROSSE      CLEAR     81  65  58 NW3       30.01R HX  83
SPARTA         CLEAR     79  65  63 CALM      30.03R HX  81
VIROQUA        CLEAR     76  66  71 CALM      30.05R
BOSCOBEL       CLEAR     80  67  64 NW3       30.02R HX  82
PRAIRIE DU CHI CLEAR     76  66  71 CALM      30.02R
PLATTEVILLE    CLEAR     78  66  66 NW3       30.04R HX  80
$$

WIZ056-057-062-063-064-067-068-260200-
SOUTH CENTRAL WISCONSIN

CITY           SKY/WX    TMP DP  RH WIND       PRES   REMARKS
REEDSBURG      PTCLDY    78  64  61 W6        30.02R HX  80
BARABOO/DELLS  PTCLDY    77  62  60 NW3       30.02S
LONE ROCK      CLEAR     77  68  73 N6        30.02R
MINERAL POINT  CLEAR     77  66  69 CALM      30.04S
MADISON        PTCLDY    78  65  63 CALM      30.01R HX  80
MIDDLETON      CLEAR     77  68  72 W3        30.02S
WATERTOWN      CLEAR     79  64  58 CALM      30.00S HX  81
MONROE         CLEAR     79  63  57 NW5       30.03R HX  80
JANESVILLE     CLEAR     81  63  54 NW5       30.00R HX  82
$$

WIZ051-052-058>065-066-070>072-260200-
SOUTHEAST WISCONSIN

CITY           SKY/WX    TMP DP  RH WIND       PRES   REMARKS
MILWAUKEE      PTCLDY    80  62  54 SE5       29.99R HX  81
WAUKESHA       CLEAR     77  61  57 NW9       30.02R
MILWAUKEE/TIMM CLEAR     81  57  44 W8        30.00  HX  81
RACINE         CLEAR     78  63  59 S5        30.01R HX  80
BURLINGTON     CLEAR     77  66  68 CALM      30.00S
KENOSHA        CLEAR     78  62  57 SE6       30.01R HX  80
FOND DU LAC    CLEAR     79  64  60 W3        30.00R HX  81
SHEBOYGAN      CLEAR     77  64  64 NW3       29.99R
WEST BEND      CLEAR     79  59  50 CALM      30.00S HX  80
JUNEAU         CLEAR     78  64  61 CALM      30.02R
$$

LSZ147-162-260200-
LAKE SUPERIOR

STATION/POSITION TIME  TEMP    WIND        PRES    WAVE
                       AIR SEA DIR/SP/G            HT/PER
                 (UTC) (F)     (DEG/KT/KT) (MB)    (FT/S)
W MID LAKE BUOY  0050   65 60  230/  8/ 10 1013.2S   2/ 4
DEVILS ISLAND    0000   75     230/ 12/ 13 1013.7F
PORT WING        0000   82     250/  5/  7 1014.2
SAXON HARBOR     0000   81     220/  3/  5 1014.6
$$

LMZ867-665-643>646-260200-
LAKE MICHIGAN

STATION/POSITION TIME  TEMP    WIND        PRES    WAVE
                       AIR SEA DIR/SP/G            HT/PER
                 (UTC) (F)     (DEG/KT/KT) (MB)    (FT/S)
CHAMBERS ISLAND  0000   83     290/  5/  6 1013.9R
S GREEN BAY BUOY 0000   78 75  280/  4/  6   N/A
N MID LAKE BUOY  0050   72 71  140/  6/  8 1013.8R   1
NORTHPORT PIER   0000   81     290/  2/  2 1013.5S
SISTER BAY       0006   84        CALM       N/A
ALGOMA LAKESHORE 0013          330/  5/  7   N/A
KEWAUNEE LAKESHO 0006          170/  4/  7   N/A
SHEBOYGAN LAKESH 0100   68     190/  7/  8 1015.3R
PORT WASHINGTON  0040   71     190/  9/ 10 1015.9R
ATWATER BUOY     0000   65 54  190/  6/  6 1016.8S
MILWAUKEE LAKESH 0010   69     160/  8/  9   N/A
S MID LAKE BUOY  0050   75 75  190/  4/  4 1015.0R   1
KENOSHA   LAKESH 0000   75     190/  9/ 12 1014.9S
$$

TC  - TEMPERATURE IN CELSIUS
VSB - VISIBILITY IN STATUTE MILES
WCI - WIND CHILL INDEX
HX  - HEAT INDEX





USA.gov is the U.S. government's official web portal to all federal, state and local government web resources and services.